Weather in Kalibo

Philippines     11°41′54″N   122°22′08″E
temp.,
°C
wind,
m/s
gust,
m/s
humid.,
%
clouds,
%
prec.,
mm/h
press.,
hPa
HPBL,
m
13 june, sun
sun1323:00+24sse129483 0.9 101272
02:00+24s229493 2.0 101153
05:00+24wsw229291 2.1 101162
08:00+25wsw268998 2.1 1012455
11:00+28wsw3476100 3.4 1012767
14:00+25sw2489100 8.1 1010313
17:00+24wsw2494100 2.0 1010188
20:00+24wsw249698 2.6 1012132
14 june, mon
mon1423:00+24sw239577 0.1 101299
02:00+24wsw249599 0.3 1010120
05:00+24sw119486 0.0 101056
08:00+27sse128281 0.0 1011390
11:00+31ne126163 0.0 10101248
14:00+30nw126763 0.6 10081017
17:00+26sw1382100 0.4 1008150
20:00+25sw238799 0.4 101085
15 june, tue
tue1523:00+25sw238935 0.0 101074
02:00+24sw129197 0.0 100958
05:00+24ssw11925 0.0 100948
08:00+28ssw1272100 0.0 1010553
11:00+31nw026036 0.0 10091258
14:00+30w246348 0.1 10081113
17:00+28wsw477950 0.9 1008623
20:00+25sw368846 2.6 1010217
16 june, wed
wed1623:00+24sw229386 0.3 101163
02:00+24sw2294100 0.6 101062
05:00+24sw1194100 0.3 101045
08:00+27s1281100 0.3 1011303
11:00+32e1257100 0.0 10101204
14:00+31nne1162100 0.1 1008998
17:00+28w1278100 0.2 1009209
20:00+25wsw2289100 0.4 101173
17 june, thu
thu1723:00+24sw229398 0.9 101256
02:00+24ssw2296100 4.0 101054
05:00+24ssw229432 0.7 101046
08:00+28s127940 0.7 1011279
11:00+32sse025613 0.0 10101266
14:00+30w2363100 0.4 10091008
17:00+28wsw36747 0.1 1009622
20:00+25wsw248851 0.8 1011107